[[{"header":{"parameterUnit":"m.s-1","parameterCategory":1,"la1":30.2991,"la2":30.254,"lo1":-89.0895,"lo2":-89.0444,"dy":0.0017,"dx":0.0017,"nx":28,"ny":28,"refTime":"2024-02-17T03:00:00:Z","depth":0,"parameterNumber":2,"parameterNumberName":"U-component_of_WINDS"},"data":[0,0,0,0,0,0,0,0,0,0,0,0,0,0,0,0,0,0,0,0,0,0,0,0,0,0,0,0,0,0,0,0,0,0,0,0,0,0,0,0,0,0,0,0,0,0,0,0,0,0,0,0,0,0,0,0,0,0,1.835,1.835,0,1.8393,1.8393,1.8394,1.8391,1.839,1.8389,1.8389,1.8433,1.8435,1.8437,0,0,0,0,0,0,0,0,0,0,0,0,0,1.8266,1.8267,1.8349,1.835,1.8351,1.8393,1.8393,1.8394,1.8391,1.839,1.8389,1.8388,1.8433,1.8435,1.8437,0,0,0,0,0,0,0,0,0,0,0,0,0,1.8305,1.8268,1.8349,1.8354,1.8355,1.8393,1.8394,1.8394,1.8391,1.839,1.8389,1.8388,1.8432,1.8435,1.8437,1.8473,0,0,1.8445,1.8447,0,0,0,0,0,0,0,0,1.8303,1.8308,1.8353,1.8354,1.8355,1.8385,1.838,1.8421,1.8391,1.8377,1.8389,1.8387,1.8418,1.8422,1.8432,1.8476,1.8477,1.8446,1.8447,1.8448,1.8449,0,0,0,0,0,0,0,1.83,1.8306,1.8367,1.8353,1.8355,1.8355,1.8359,1.8388,1.8403,1.8378,1.8378,1.8383,1.8418,1.843,1.8433,1.8478,1.8446,1.8448,1.845,1.8451,1.8557,1.8558,0,0,0,0,0,0,1.8296,1.8304,1.8365,1.8368,1.8326,1.8357,1.8362,1.8376,1.8402,1.8405,1.8384,1.8383,1.8425,1.843,1.8435,1.8481,1.8448,1.8451,1.8453,1.8555,1.8557,1.8558,0,0,0,0,0,0,1.8294,1.8301,1.8364,1.8336,1.8344,1.8359,1.8376,1.8378,1.8389,1.8407,1.8409,1.8393,1.8425,1.8431,1.8465,1.8482,1.8452,1.8455,1.8554,1.8556,1.8558,1.8572,0,0,0,0,0,0,1.8292,1.8301,1.8314,1.8336,1.8345,1.8392,1.8377,1.8379,1.8394,1.8393,1.8415,1.8418,1.8425,1.8461,1.8467,1.8485,1.8457,1.8553,1.8555,1.8557,1.857,1.8574,1.8577,0,0,0,0,0,1.8289,1.8316,1.8315,1.8322,1.8362,1.8393,1.8398,1.8405,1.8395,1.8409,1.8421,1.8418,1.8479,1.8464,1.8471,1.8491,1.8551,1.8554,1.8557,1.8568,1.8573,1.8577,0,0,0,0,0,0,1.8295,1.8319,1.8318,1.8353,1.8371,1.8392,1.841,1.8409,1.8431,1.8429,1.8436,1.8442,1.8476,1.8487,1.8469,1.8529,1.8514,1.8518,1.852,1.8525,1.8529,1.8526,1.8459,0,0,0,0,0,1.83,1.8323,1.8343,1.8372,1.8381,1.8394,1.8408,1.8411,1.8431,1.8438,1.8452,1.8471,1.8495,1.8511,1.8533,1.8572,1.8578,1.8589,1.8593,1.8596,1.8599,1.8623,1.8628,1.8567,1.8567,1.8567,0,0,1.8311,1.8327,1.8341,1.8373,1.8388,1.8412,1.84,1.8426,1.8444,1.8442,1.8475,1.8486,1.8508,1.8545,1.8562,1.8555,1.8618,1.8599,1.8601,1.8603,1.8626,1.8632,1.8637,1.8569,1.8569,1.8568,0,0,1.8344,1.8358,1.8385,1.84,1.8423,1.8432,1.8438,1.8461,1.8468,1.8502,1.8501,1.8524,1.8564,1.858,1.8594,1.8637,1.8635,1.8644,1.8663,1.8686,1.8691,1.8695,1.8712,1.8718,1.8647,1.8647,1.8647,0,1.8355,1.8391,1.8398,1.8425,1.844,1.844,1.8468,1.8483,1.8512,1.8522,1.8514,1.8567,1.8582,1.8623,1.8634,1.8645,1.8653,1.8641,1.8689,1.8694,1.8698,1.8714,1.872,1.8648,1.8648,1.8648,1.8648,0,1.8405,1.843,1.8449,1.8478,1.8495,1.8522,1.8534,1.8551,1.8554,1.8565,1.86,1.8618,1.8645,1.8656,1.8658,1.8699,1.8694,1.8688,1.8673,1.8705,1.872,1.8726,1.865,1.865,1.8649,1.8649,0,0,1.8441,1.8475,1.8482,1.8497,1.8523,1.8543,1.8571,1.8598,1.8613,1.8634,1.8659,1.8694,1.869,1.8705,1.871,1.873,1.8765,1.8722,1.8722,1.873,1.8812,1.8817,1.8824,1.8764,1.8765,1.8766,1.8811,0,1.8478,1.8527,1.8536,1.8579,1.8604,1.8606,1.8631,1.865,1.8661,1.8684,1.8696,1.8722,1.8713,1.8723,1.8743,1.8756,1.8782,1.8753,1.8788,1.8789,1.8783,1.8832,1.8837,1.8878,1.8817,1.8818,1.8819,0,1.8526,1.8549,1.8596,1.8621,1.8632,1.8654,1.8681,1.8703,1.8726,1.8733,1.8751,1.8755,1.8785,1.877,1.8813,1.8794,1.8809,1.8818,1.882,1.8824,1.8806,1.8838,1.8891,1.8898,1.8828,1.8827,1.8826,0,1.855,1.8593,1.8627,1.8638,1.8668,1.8684,1.8698,1.872,1.8736,1.876,1.8772,1.8799,1.8814,1.8836,1.8847,1.8834,1.889,1.8875,1.8898,1.8898,1.8909,1.8908,1.8967,1.8918,1.8918,1.8918,1.8918,0,1.859,1.8619,1.8638,1.8659,1.8692,1.8702,1.8734,1.8747,1.8768,1.8792,1.8795,1.8818,1.8831,1.8857,1.8866,1.8901,1.8908,1.8915,1.8917,1.8915,1.8914,1.8925,1.8923,1.8919,1.8919,1.8919,1.8918,0,1.8622,1.8636,1.8673,1.8699,1.8706,1.873,1.8752,1.8774,1.8785,1.8816,1.8824,1.8843,1.8873,1.8887,1.8924,1.893,1.8971,1.8971,1.8963,1.8964,1.8987,1.8985,1.9054,1.9065,1.9008,1.9009,1.9009,0,1.8647,1.8669,1.8698,1.8715,1.8729,1.8756,1.8774,1.8785,1.8804,1.8833,1.8851,1.8882,1.8907,1.8955,1.8973,1.9002,1.9003,1.9025,1.9007,1.9005,1.9005,1.9003,1.9007,1.9028,1.9029,1.9029,1.903,0,1.8691,1.8697,1.8722,1.8751,1.8772,1.8795,1.8817,1.8831,1.8847,1.8868,1.8899,1.8918,1.8957,1.8988,1.9019,1.9033,1.9035,1.9036,1.9043,1.9041,1.9036,1.9041,1.8973,1.9034,1.9033,1.9033,1.9033,1.9033,1.872,1.8741,1.8766,1.8795,1.8813,1.8835,1.8857,1.8872,1.8898,1.8931,1.8937,1.897,1.8995,1.9037,1.9053,1.908,1.9075,1.9084,1.9087,1.909,1.9092,1.9032,1.9086,1.9086,1.9085,1.9085,1.9085,0,1.8765,1.8782,1.8808,1.884,1.8864,1.8863,1.8889,1.8909,1.8938,1.8962,1.8987,1.9024,1.9055,1.9075,1.9107,1.9125,1.9126,1.9133,1.9132,1.9136,1.9094,1.9085,1.9131,1.9131,1.9131,1.9131,1.9131,1.9131,1.8791,1.8827,1.8837,1.8883,1.8899,1.8933,1.8948,1.8968,1.8987,1.9029,1.9054,1.9068,1.9091,1.9124,1.9153,1.9158,1.917,1.9177,1.9182,1.9143,1.9138,1.9134,1.9126,1.9179,1.9179,1.9222,1.9222,1.9222]},{"header":{"parameterUnit":"m.s-1","parameterCategory":1,"la1":30.2991,"la2":30.254,"lo1":-89.0895,"lo2":-89.0444,"dy":0.0017,"dx":0.0017,"nx":28,"ny":28,"refTime":"2024-02-17T03:00:00:Z","depth":0,"parameterNumber":3,"parameterNumberName":"V-component_of_WINDS"},"data":[0,0,0,0,0,0,0,0,0,0,0,0,0,0,0,0,0,0,0,0,0,0,0,0,0,0,0,0,0,0,0,0,0,0,0,0,0,0,0,0,0,0,0,0,0,0,0,0,0,0,0,0,0,0,0,0,0,0,-2.2297,-2.2297,0,-2.2316,-2.2316,-2.2316,-2.2312,-2.2312,-2.2311,-2.2311,-2.2329,-2.2329,-2.233,0,0,0,0,0,0,0,0,0,0,0,0,0,-2.2259,-2.226,-2.2297,-2.2297,-2.2298,-2.2315,-2.2316,-2.2316,-2.2312,-2.2312,-2.2311,-2.2311,-2.2328,-2.2329,-2.233,0,0,0,0,0,0,0,0,0,0,0,0,0,-2.2276,-2.226,-2.2297,-2.2298,-2.2298,-2.2315,-2.2316,-2.2316,-2.2312,-2.2312,-2.2311,-2.2311,-2.2328,-2.2329,-2.233,-2.2347,0,0,-2.2334,-2.2334,0,0,0,0,0,0,0,0,-2.2275,-2.2278,-2.2298,-2.2298,-2.2298,-2.2311,-2.2309,-2.2327,-2.2312,-2.2307,-2.2311,-2.2311,-2.2323,-2.2325,-2.2329,-2.2348,-2.2349,-2.2334,-2.2335,-2.2335,-2.2336,0,0,0,0,0,0,0,-2.2274,-2.2277,-2.2304,-2.2298,-2.2298,-2.2297,-2.2299,-2.2312,-2.2317,-2.2307,-2.2307,-2.2309,-2.2323,-2.2328,-2.2329,-2.2349,-2.2334,-2.2335,-2.2336,-2.2336,-2.2386,-2.2387,0,0,0,0,0,0,-2.2273,-2.2276,-2.2304,-2.2305,-2.2285,-2.2299,-2.2301,-2.2307,-2.2317,-2.2318,-2.231,-2.2309,-2.2326,-2.2328,-2.233,-2.2352,-2.2335,-2.2336,-2.2337,-2.2385,-2.2386,-2.2387,0,0,0,0,0,0,-2.2272,-2.2275,-2.2303,-2.229,-2.2294,-2.23,-2.2307,-2.2308,-2.2313,-2.2319,-2.232,-2.2314,-2.2326,-2.2328,-2.2344,-2.2353,-2.2337,-2.2338,-2.2385,-2.2386,-2.2386,-2.2396,0,0,0,0,0,0,-2.2271,-2.2275,-2.2281,-2.2291,-2.2295,-2.2316,-2.2308,-2.2309,-2.2315,-2.2314,-2.2323,-2.2324,-2.2326,-2.2342,-2.2345,-2.2354,-2.2339,-2.2384,-2.2385,-2.2386,-2.2395,-2.2397,-2.2399,0,0,0,0,0,-2.2269,-2.2282,-2.2282,-2.2285,-2.2303,-2.2317,-2.2319,-2.2321,-2.2316,-2.2323,-2.2327,-2.2324,-2.2351,-2.2344,-2.2347,-2.2357,-2.2383,-2.2385,-2.2386,-2.2394,-2.2397,-2.2399,0,0,0,0,0,0,-2.2273,-2.2284,-2.2283,-2.2299,-2.2307,-2.2316,-2.2324,-2.2324,-2.2333,-2.2332,-2.2333,-2.2335,-2.2352,-2.2355,-2.2347,-2.2375,-2.2367,-2.2369,-2.2372,-2.2374,-2.2376,-2.2375,-2.234,0,0,0,0,0,-2.2276,-2.2287,-2.2295,-2.2309,-2.2313,-2.2318,-2.2324,-2.2326,-2.2334,-2.2337,-2.2342,-2.235,-2.2361,-2.2368,-2.2378,-2.2396,-2.2398,-2.2404,-2.2406,-2.2408,-2.241,-2.2422,-2.2425,-2.2391,-2.2391,-2.2391,0,0,-2.2281,-2.2289,-2.2295,-2.231,-2.2316,-2.2328,-2.2321,-2.2333,-2.2342,-2.2338,-2.2354,-2.2358,-2.2367,-2.2385,-2.2393,-2.2389,-2.242,-2.241,-2.2411,-2.2412,-2.2423,-2.2427,-2.2429,-2.2392,-2.2392,-2.2392,0,0,-2.2298,-2.2304,-2.2317,-2.2324,-2.2334,-2.2338,-2.2341,-2.2351,-2.2354,-2.237,-2.2368,-2.2379,-2.2397,-2.2404,-2.241,-2.2432,-2.243,-2.2435,-2.2446,-2.2457,-2.246,-2.2462,-2.2471,-2.2474,-2.2437,-2.2437,-2.2437,0,-2.2303,-2.2321,-2.2323,-2.2337,-2.2344,-2.2343,-2.2357,-2.2363,-2.2376,-2.2381,-2.2376,-2.24,-2.2406,-2.2426,-2.2432,-2.2436,-2.2441,-2.2434,-2.2459,-2.2462,-2.2464,-2.2473,-2.2476,-2.2437,-2.2437,-2.2437,-2.2437,0,-2.2328,-2.234,-2.2349,-2.2363,-2.2372,-2.2385,-2.239,-2.2398,-2.2399,-2.2403,-2.242,-2.2428,-2.244,-2.2445,-2.2445,-2.2466,-2.2463,-2.2459,-2.2451,-2.2468,-2.2476,-2.2479,-2.2438,-2.2438,-2.2438,-2.2438,0,0,-2.2345,-2.2363,-2.2366,-2.2373,-2.2386,-2.2395,-2.2409,-2.2422,-2.243,-2.2439,-2.2451,-2.2468,-2.2465,-2.2472,-2.2473,-2.2483,-2.2502,-2.2478,-2.2478,-2.2483,-2.2527,-2.253,-2.2534,-2.2501,-2.2501,-2.2502,-2.2526,0,-2.2364,-2.2389,-2.2393,-2.2415,-2.2427,-2.2428,-2.244,-2.2449,-2.2454,-2.2465,-2.2471,-2.2483,-2.2477,-2.2482,-2.2492,-2.2497,-2.2511,-2.2496,-2.2513,-2.2513,-2.2511,-2.2538,-2.2541,-2.2564,-2.2529,-2.253,-2.253,0,-2.2388,-2.24,-2.2424,-2.2437,-2.2442,-2.2453,-2.2466,-2.2477,-2.2488,-2.2491,-2.25,-2.2501,-2.2516,-2.2507,-2.2529,-2.2519,-2.2526,-2.253,-2.2531,-2.2533,-2.2523,-2.2542,-2.2571,-2.2575,-2.2535,-2.2535,-2.2534,0,-2.24,-2.2422,-2.2439,-2.2445,-2.246,-2.2469,-2.2475,-2.2486,-2.2494,-2.2506,-2.2512,-2.2525,-2.2532,-2.2543,-2.2547,-2.254,-2.2569,-2.256,-2.2573,-2.2573,-2.2579,-2.2578,-2.261,-2.2582,-2.2582,-2.2582,-2.2582,0,-2.2421,-2.2435,-2.2445,-2.2456,-2.2473,-2.2478,-2.2495,-2.2501,-2.2511,-2.2524,-2.2524,-2.2536,-2.2541,-2.2554,-2.2558,-2.2576,-2.2579,-2.2582,-2.2583,-2.2583,-2.2582,-2.2588,-2.2586,-2.2583,-2.2583,-2.2583,-2.2582,0,-2.2437,-2.2444,-2.2463,-2.2477,-2.2481,-2.2493,-2.2505,-2.2516,-2.2521,-2.2537,-2.2541,-2.255,-2.2565,-2.2571,-2.2589,-2.2592,-2.2613,-2.2613,-2.261,-2.261,-2.2623,-2.2622,-2.266,-2.2666,-2.2633,-2.2633,-2.2634,0,-2.2449,-2.2461,-2.2477,-2.2486,-2.2493,-2.2507,-2.2517,-2.2522,-2.2532,-2.2547,-2.2556,-2.2572,-2.2584,-2.2609,-2.2617,-2.2631,-2.2631,-2.2644,-2.2634,-2.2633,-2.2633,-2.2633,-2.2635,-2.2646,-2.2646,-2.2646,-2.2647,0,-2.2472,-2.2476,-2.2489,-2.2505,-2.2516,-2.2528,-2.254,-2.2547,-2.2555,-2.2566,-2.2582,-2.2592,-2.2612,-2.2628,-2.2643,-2.265,-2.265,-2.265,-2.2654,-2.2654,-2.2652,-2.2655,-2.2616,-2.2649,-2.2649,-2.2649,-2.2648,-2.2648,-2.2487,-2.2499,-2.2512,-2.2528,-2.2538,-2.255,-2.2561,-2.2569,-2.2583,-2.26,-2.2603,-2.2621,-2.2634,-2.2654,-2.2662,-2.2677,-2.2673,-2.2678,-2.268,-2.2681,-2.2683,-2.265,-2.2679,-2.2679,-2.2679,-2.2679,-2.2679,0,-2.2511,-2.252,-2.2535,-2.2552,-2.2565,-2.2565,-2.2579,-2.2589,-2.2605,-2.2618,-2.2631,-2.2651,-2.2667,-2.2677,-2.2693,-2.2703,-2.2703,-2.2707,-2.2706,-2.2708,-2.2684,-2.268,-2.2706,-2.2706,-2.2706,-2.2706,-2.2706,-2.2706,-2.2525,-2.2544,-2.255,-2.2575,-2.2584,-2.2603,-2.2611,-2.2622,-2.2632,-2.2655,-2.2668,-2.2675,-2.2687,-2.2705,-2.272,-2.2722,-2.2729,-2.2733,-2.2735,-2.2713,-2.271,-2.2707,-2.2703,-2.2734,-2.2734,-2.2758,-2.2759,-2.2759]}]]